Location: Ch�teauredon
(44.0141°N, 6.2146°E)
Time: 16:50:42
(UTC+00:00)

Daily predictions for brighter satellites

Satellite Brightness Start Highest point End
(mag) Time Altitude Azimuth Time Altitude Azimuth Time Altitude Azimuth
Cosmos 1455 Rocket 3.2 18:26:02 10° S 18:30:22 81° W 18:34:46 10° N
Cosmos 1953 3.5 18:27:28 10° SE 18:30:31 22° E 18:33:36 10° NE
YAOGAN 1 3.4 18:26:45 10° S 18:30:59 56° W 18:35:16 10° NNW
STARLINK-1101 3.8 18:28:29 10° NW 18:32:36 62° NNE 18:36:42 10° ESE
Cosmos 2315 Rocket 4.1 18:27:28 10° S 18:33:38 59° E 18:39:54 10° NNE
STARLINK-1102 3.7 18:33:28 10° NW 18:37:36 67° NNE 18:41:43 10° ESE
FREGAT/IRIS 3.5 18:35:26 10° SE 18:37:45 25° ENE 18:40:05 10° NNE
Resurs 01 Rocket 3.6 18:36:03 10° E 18:37:46 12° ENE 18:39:30 10° NE
Aureole 3 4.4 18:34:42 10° SSE 18:38:42 37° E 18:43:42 10° NNE
Cosmos 1733 4.2 18:35:32 10° SSW 18:39:12 52° W 18:42:55 10° N
GEOS 3 Rocket 4.1 18:34:19 10° SSE 18:39:23 62° SW 18:44:34 10° NW
NOSS 3-3 (A) 4.3 18:34:03 10° S 18:39:25 41° ESE 18:45:21 10° NE
Cosmos 2369 Rocket 2.8 18:34:09 10° NNW 18:39:30 40° ENE 18:44:47 10° SE
NOSS 3-3 (C) 4.3 18:34:11 10° S 18:39:31 41° ESE 18:45:27 10° NE
Cosmos 1626 Rocket 3.6 18:35:13 10° N 18:39:33 57° E 18:43:49 10° SSE
Cosmos 1626 2.2 18:38:29 10° N 18:42:12 86° W 18:45:54 10° S
STARLINK-1111 3.7 18:38:25 10° NW 18:42:34 72° NNE 18:46:41 10° ESE
SL-8 R/B 4.0 18:40:30 10° WNW 18:45:15 61° NNE 18:49:51 11° E
Cosmos 1943 Rocket 2.3 18:40:10 10° NNW 18:45:39 56° ENE 18:51:07 10° SE
Cosmos 1437 4.5 18:44:16 10° NNE 18:46:08 15° ENE 18:47:33 12° E
Meteor 1-24 Rocket 4.3 18:41:34 10° NNW 18:46:55 58° W 18:52:06 10° S
Cosmos 1709 Rocket 4.0 18:41:04 10° N 18:47:17 85° E 18:53:24 10° S
ADEOS Rocket 3.8 18:41:03 10° N 18:47:31 61° WNW 18:53:19 10° SSW
STARLINK-1073 3.6 18:43:24 10° NW 18:47:34 77° NNE 18:51:29 11° ESE
Cosmos 1602 Rocket 3.7 18:44:56 10° N 18:49:20 57° E 18:53:39 10° SSE
Cosmos 1470 2.7 18:47:01 10° S 18:50:52 81° E 18:54:48 10° N
STARLINK-1121 3.6 18:48:22 10° NW 18:52:31 83° NE 18:56:15 13° ESE
Ariane Rocket 3.0 18:50:11 10° SSE 18:55:15 79° ENE 19:00:20 10° NNW
STARLINK-1106 3.6 18:53:20 10° NW 18:57:30 89° NE 19:01:01 14° SE
Abrixas rocket 2.7 18:55:24 10° W 18:58:17 49° NNW 19:01:12 10° ENE
Cosmos 1544 Rocket 4.5 18:54:16 10° SSW 18:58:35 54° WNW 19:02:57 10° N
Aureole 2 Rocket 2.6 18:57:08 10° NNW 19:00:34 52° ENE 19:03:32 13° SE
Cosmos 2074 Rocket 4.3 18:56:10 10° N 19:02:10 45° ENE 19:08:09 10° SSE
STARLINK-1112 3.6 18:58:19 10° WNW 19:02:29 84° SW 19:05:49 15° SE
Cosmos 1943 3.6 18:57:26 10° S 19:02:39 40° ESE 19:07:55 10° NE
ATLAS 2AS CENTAUR R/B 3.8 18:56:22 10° NNW 19:03:18 35° NE 19:08:47 14° E
IRIDIUM 103 4.5 18:59:44 10° N 19:04:51 52° E 19:09:55 10° SSE
ISS -3.8 19:01:39 10° WNW 19:05:01 78° NNE 19:07:16 19° ESE
Cosmos 1825 Rocket 4.3 19:02:58 10° N 19:06:59 34° ENE 19:10:01 15° SE
STARLINK-1128 3.7 19:03:19 10° WNW 19:07:28 78° SW 19:10:37 17° SE
SL-08 RB Rocket 3.9 19:03:13 10° SSE 19:07:36 50° ENE 19:12:03 10° N
USA 234 3.7 19:02:06 10° ENE 19:08:08 38° SE 19:14:09 10° SSW
SPOT 3 Rocket 3.9 19:06:50 10° SE 19:11:45 48° ENE 19:16:45 10° N
STARLINK-1113 3.7 19:08:18 10° WNW 19:12:25 72° SW 19:15:23 18° SE
STARLINK-1119 3.8 19:13:17 10° WNW 19:17:24 66° SW 19:20:11 20° SE
SJ-6B 2.8 19:14:01 10° SSE 19:18:06 78° ENE 19:22:14 10° N
Cosmos 1758 Rocket 3.6 19:14:34 10° N 19:18:50 53° ENE 19:22:13 15° SSE
STARLINK-1114 3.9 19:18:17 10° WNW 19:22:22 60° SW 19:24:58 21° SE
IRIDIUM 106 4.2 19:17:55 10° N 19:23:10 76° E 19:28:22 10° S
SL-16 R/B 4.0 19:18:58 10° WSW 19:24:04 34° NW 19:29:13 10° N
MOS 1 Rocket 4.0 19:19:08 10° NNE 19:24:09 40° E 19:29:14 10° SSE
Cosmos 1953 Rocket 4.2 19:21:51 10° N 19:26:01 37° ENE 19:27:53 25° ESE
STARLINK-1130 (DARKSAT) 4.1 19:23:16 10° WNW 19:27:19 55° SW 19:29:44 22° SSE
CZ-2C R/B 3.2 19:22:44 10° S 19:27:42 70° WSW 19:32:31 10° NNW
Cosmos 1818 3.7 19:22:32 10° SSW 19:27:46 51° ESE 19:33:02 10° NE
Cosmos 1606 Rocket 3.7 19:24:03 10° SSE 19:28:17 49° E 19:32:35 10° NNE
MOS 1 4.5 19:23:05 10° S 19:28:43 74° WSW 19:34:24 10° NNW
BREEZE M DEB (TANK) 4.1 19:19:42 10° SW 19:31:51 57° SSE 19:34:30 22° E
Cosmos 614 Rocket 4.5 19:27:13 10° SSE 19:31:58 37° ESE 19:36:44 10° NE
STARLINK-1084 4.2 19:28:16 10° WNW 19:32:17 50° SW 19:34:31 24° SSE
Cosmos 407 Rocket 4.1 19:30:03 18° SSE 19:33:04 31° E 19:37:33 10° NE
H-2A R/B 4.3 19:29:28 10° WSW 19:33:37 13° SW 19:36:06 10° SSW
Cosmos 2228 3.1 19:30:15 10° S 19:34:21 53° E 19:38:34 10° NNE
SL-24 R/B 3.7 19:31:39 10° NNE 19:35:55 73° E 19:39:44 10° S
CZ-2C R/B 2.7 19:31:11 10° NNE 19:36:11 47° E 19:41:11 10° S
Cosmos 2084 Rocket 4.5 19:32:51 10° NW 19:37:06 44° WSW 19:40:26 16° S
STARLINK-1098 4.3 19:33:17 10° WNW 19:37:15 46° SW 19:39:19 25° SSE
Cosmos 1656 Rocket 3.9 19:31:53 10° NNW 19:37:27 54° ENE 19:40:14 28° SE
Meteor 1-21 Rocket 4.4 19:32:54 10° NNW 19:38:26 71° W 19:43:55 10° S
Cosmos 1992 Rocket 4.2 19:33:48 10° NNW 19:39:00 70° WSW 19:43:32 13° S
ARGOS 3.7 19:35:24 10° S 19:40:43 60° W 19:46:04 10° NNW
STARLINK-1123 4.5 19:38:18 10° WNW 19:42:13 42° SW 19:44:06 25° SSE
MetOp-A 4.1 19:38:31 16° SSE 19:42:50 82° ENE 19:48:13 10° NNW
SL-4 R/B 1.8 19:40:46 10° SW 19:43:45 45° SSE 19:43:45 45° SSE
BREEZE-M DEB (TANK) 3.7 19:39:10 10° WNW 19:45:02 53° NNE 19:45:58 37° ENE
USA 186 3.8 19:42:59 10° SSW 19:46:00 29° W 19:48:57 10° NW
COSMOS 2455 4.1 19:40:54 10° NNW 19:46:00 27° NE 19:48:18 22° ENE
Cosmos 1603 3.9 19:40:33 10° SSW 19:46:11 74° WNW 19:51:49 10° NNE
Cosmos 1726 2.5 19:43:04 10° SSW 19:46:47 64° W 19:50:30 10° N
Cosmos 1340 Rocket 3.6 19:47:47 33° ENE 19:47:47 33° ENE 19:50:53 10° NNE
H-2A R/B 3.3 19:44:42 10° SSW 19:49:39 40° W 19:54:30 10° NNW
Meteor 1-16 Rocket 4.2 19:47:27 10° SSW 19:52:48 82° W 19:58:20 10° N
Resurs 1-3 3.5 19:51:24 28° SSE 19:53:40 88° WSW 19:58:06 10° NNW
Cosmos 1328 3.7 19:50:22 10° N 19:54:23 77° E 19:55:27 47° SSE
Cosmos 2184 Rocket 4.2 19:52:31 10° NNW 19:58:48 72° W 20:04:58 10° S
Cosmos 1703 3.4 20:01:53 10° NNW 20:05:50 74° W 20:06:51 47° SSW
Cosmos 1953 4.4 20:03:20 10° SW 20:06:46 28° WNW 20:10:13 10° NNW
Cosmos 1461 4.1 20:03:29 10° NNW 20:07:34 33° NE 20:07:55 32° NE
DMSP B5D2-2 4.2 20:05:25 10° N 20:10:37 73° WNW 20:15:49 10° SSW
Resurs 01 Rocket 1.6 20:12:28 49° S 20:13:37 78° WSW 20:18:04 10° NNW
APEX 4.3 20:11:40 10° NNW 20:18:22 70° ENE 20:19:41 53° ESE
Cosmos 2181 Rocket 4.3 20:18:41 44° E 20:19:02 45° E 20:24:54 10° NNE
Cosmos 2058 Rocket 3.0 20:18:19 60° S 20:19:08 88° E 20:23:41 10° N
USA 245 4.2 20:18:18 52° ESE 20:19:08 58° ENE 20:25:08 10° N
Cosmos 2154 Rocket 4.1 20:14:19 10° N 20:20:42 77° W 20:24:20 27° S
NOSS 3-4 (A) 3.8 20:15:22 10° NW 20:22:24 75° NE 20:24:57 45° SE
NOSS 3-4 (C) 3.8 20:15:28 10° NW 20:22:30 74° NE 20:25:02 45° SE
Cosmos 2369 Rocket 3.6 20:18:24 10° NW 20:23:24 33° WSW 20:27:19 15° SSW
Landsat 7 4.2 20:24:18 47° NE 20:24:18 47° NE 20:28:31 10° N
Nadezhda 1 Rocket 4.4 20:19:55 10° SSW 20:26:15 65° W 20:32:36 10° N
Cosmos 962 Rocket 4.3 20:21:30 10° N 20:27:41 78° E 20:29:12 53° SSE
SL-8 R/B 4.1 20:23:09 10° WNW 20:27:46 50° SSW 20:27:50 50° SSW
Cosmos 1943 Rocket 4.3 20:24:48 10° NW 20:28:56 22° W 20:33:05 10° SSW
Cosmos 1908 4.4 20:27:25 25° SW 20:29:08 40° WNW 20:32:49 10° N
SL-8 Rocket 4.0 20:26:05 10° N 20:32:18 57° ENE 20:32:55 55° ESE
SL-24 R/B - RUBIN 2 4.1 20:31:45 10° SSW 20:37:15 81° ESE 20:43:30 10° NE
SPOT 5 4.1 20:39:20 26° NNE 20:39:20 26° NNE 20:41:42 10° N
ISS -0.9 20:39:25 10° W 20:40:16 13° WSW 20:40:16 13° WSW
Cosmos 2366 rocket 4.1 20:36:37 10° N 20:42:31 53° ENE 20:42:31 53° ENE
Cosmos 1190 Rocket 4.1 20:40:52 37° SSW 20:43:00 76° WNW 20:48:19 10° NNE
Spot 2 Rocket 3.5 20:46:23 75° SW 20:46:34 77° WSW 20:51:42 10° NNW
USA 234 3.5 20:44:54 10° NE 20:51:24 69° NW 20:57:52 10° WSW
Cosmos 1140 Rocket 3.6 20:51:23 67° WSW 20:51:51 73° WNW 20:57:02 10° NNE
Cosmos 1959 Rocket 4.4 20:47:20 10° N 20:53:38 68° ENE 20:53:38 68° ENE
ATLAS 2AS CENTAUR R/B 2.8 20:47:24 10° NW 20:54:55 70° WSW 20:56:15 57° S
BREEZE M DEB (TANK) 4.0 21:02:07 51° ENE 21:02:07 51° ENE 21:11:53 10° ENE
Terra 3.2 21:07:36 32° NNE 21:07:36 32° NNE 21:10:22 10° N
Cosmos 1697 Rocket 4.4 21:03:13 10° N 21:06:58 21° NE 21:06:58 21° NE
CZ-4C R/B 4.5 21:09:28 10° NNW 21:14:48 23° NNE 21:17:32 19° ENE
SPOT 1/Viking Rocket 4.1 21:17:02 56° WNW 21:17:02 56° WNW 21:21:28 10° NNW
ERS-1 Rocket 3.9 21:27:58 45° NW 21:27:58 45° NW 21:31:34 10° NNW
COSMOS 2455 3.3 21:26:26 10° NW 21:31:27 56° WNW 21:31:27 56° WNW
Cosmos 1980 Rocket 4.2 21:30:46 10° N 21:33:52 18° NE 21:33:52 18° NE
ATLAS 5 CENTAUR R/B 4.3 22:02:17 16° N 22:02:17 16° N 22:03:33 10° NNE
Mayak 2.1 22:49:56 10° NNW 22:49:57 10° NNW 22:49:57 10° NNW
SL-16 R/B 4.3 22:57:51 10° N 23:00:33 22° NNE 23:00:33 22° NNE
CZ-4C R/B 3.6 22:57:29 10° NNW 23:02:42 50° N 23:02:42 50° N
Cosmos 2322 Rocket 4.3 23:09:11 10° N 23:11:48 21° NNE 23:11:48 21° NNE
Cosmos 1980 Rocket 4.3 23:13:45 10° NNW 23:15:38 22° NNW 23:15:38 22° NNW
Cosmos 2344 4.3 23:29:13 10° NW 23:38:51 84° W 23:38:51 84° W
Cosmos 2082 Rocket 4.2 23:44:35 23° N 23:44:35 23° N 23:46:53 10° NNE
